Location: Asheville, NC
(35.6000°N, 82.5500°W)
Time: 17:06:23
(UTC-05:00)

N. Korean satellite - Pass Details

Date: 17 February 2018
Orbit: 459 x 514 km, 97.2° (Epoch: 17 February)

Event Time Altitude Azimuth Distance (km) Brightness Sun altitude
Rises 18:45:57 0° 181° (S) 2,463 10.3 -7.2°
Reaches altitude 10° 18:48:03 10° 188° (S) 1,592 9.4 -7.6°
Maximum altitude 18:51:18 43° 261° (W) 652 7.9 -8.2°
Drops below altitude 10° 18:54:37 10° 334° (NNW) 1,608 9.4 -8.9°
Sets 18:56:44 0° 342° (NNW) 2,491 10.3 -9.3°
